Time,TemperatureF,DewpointF,PressureIn,WindDirection,WindDirectionDegrees,WindSpeedMPH,WindSpeedGustMPH,Humidity,HourlyPrecipIn,Conditions,Clouds,dailyrainin,SoftwareType,DateUTC
2013-02-13 00:00:00,43.1,27.6,29.89,NNE,26,2.0,5.0,54,0.00,OVC,OVC,0.00,WeatherDisplay:10.31,2013-02-13 05:00:00,
2013-02-13 00:05:00,42.9,27.4,29.89,NE,36,3.0,6.0,54,0.00,OVC,OVC,0.00,WeatherDisplay:10.31,2013-02-13 05:05:00,
2013-02-13 00:10:00,42.8,27.3,29.89,NE,38,3.0,8.0,54,0.00,OVC,OVC,0.00,WeatherDisplay:10.31,2013-02-13 05:10:00,
2013-02-13 00:20:00,42.5,27.0,29.88,NE,38,2.0,6.0,54,0.00,OVC,OVC,0.00,WeatherDisplay:10.31,2013-02-13 05:20:00,
2013-02-13 00:30:00,42.3,26.8,29.88,NE,45,5.0,7.0,54,0.00,OVC,OVC,0.00,WeatherDisplay:10.31,2013-02-13 05:30:00,
2013-02-13 00:40:00,42.1,26.6,29.89,NE,43,3.0,6.0,54,0.00,OVC,OVC,0.00,WeatherDisplay:10.31,2013-02-13 05:40:00,
2013-02-13 00:45:00,41.9,26.0,29.89,NE,42,3.0,7.0,53,0.00,OVC,OVC,0.00,WeatherDisplay:10.31,2013-02-13 05:45:00,
2013-02-13 00:50:00,41.8,25.9,29.89,NE,45,5.0,6.0,53,0.00,OVC,OVC,0.00,WeatherDisplay:10.31,2013-02-13 05:50:00,
2013-02-13 01:00:00,41.5,25.6,29.89,NE,37,2.0,5.0,53,0.00,OVC,OVC,0.00,WeatherDisplay:10.31,2013-02-13 06:00:00,
2013-02-13 01:05:00,41.3,25.9,29.89,NE,45,2.0,6.0,54,0.00,OVC,OVC,0.00,WeatherDisplay:10.31,2013-02-13 06:05:00,
2013-02-13 01:10:00,41.2,25.8,29.89,NE,42,3.0,9.0,54,0.00,OVC,OVC,0.00,WeatherDisplay:10.31,2013-02-13 06:10:00,
2013-02-13 01:20:00,40.8,25.5,29.88,NE,35,3.0,9.0,54,0.00,OVC,OVC,0.00,WeatherDisplay:10.31,2013-02-13 06:20:00,
2013-02-13 01:25:00,40.8,25.9,29.89,NE,42,3.0,7.0,55,0.00,OVC,OVC,0.00,WeatherDisplay:10.31,2013-02-13 06:25:00,
2013-02-13 01:30:00,40.5,25.6,29.88,NE,48,2.0,8.0,55,0.00,OVC,OVC,0.00,WeatherDisplay:10.31,2013-02-13 06:30:00,
2013-02-13 01:40:00,40.3,25.8,29.88,NE,43,5.0,6.0,56,0.00,OVC,OVC,0.00,WeatherDisplay:10.31,2013-02-13 06:40:00,
2013-02-13 01:50:00,40.0,25.6,29.87,NE,51,3.0,7.0,56,0.00,OVC,OVC,0.00,WeatherDisplay:10.31,2013-02-13 06:50:00,
2013-02-13 02:00:00,39.8,25.8,29.86,NE,49,3.0,10.0,57,0.00,OVC,OVC,0.00,WeatherDisplay:10.31,2013-02-13 07:00:00,
2013-02-13 02:05:00,39.5,25.5,29.86,NE,44,3.0,10.0,57,0.00,OVC,OVC,0.00,WeatherDisplay:10.31,2013-02-13 07:05:00,
2013-02-13 02:10:00,39.3,25.3,29.86,NE,43,6.0,7.0,57,0.00,OVC,OVC,0.00,WeatherDisplay:10.31,2013-02-13 07:10:00,
2013-02-13 02:20:00,38.9,25.4,29.86,NE,39,5.0,6.0,58,0.00,OVC,OVC,0.00,WeatherDisplay:10.31,2013-02-13 07:20:00,
2013-02-13 02:30:00,38.6,25.5,29.86,NE,47,5.0,6.0,59,0.00,OVC,OVC,0.00,WeatherDisplay:10.31,2013-02-13 07:30:00,
2013-02-13 02:40:00,38.4,25.4,29.85,NE,41,2.0,7.0,59,0.00,OVC,OVC,0.00,WeatherDisplay:10.31,2013-02-13 07:40:00,
2013-02-13 02:50:00,38.2,25.5,29.85,NE,43,2.0,5.0,60,0.00,OVC,OVC,0.00,WeatherDisplay:10.31,2013-02-13 07:50:00,
2013-02-13 03:00:00,38.0,25.3,29.84,NE,36,3.0,7.0,60,0.00,OVC,OVC,0.00,WeatherDisplay:10.31,2013-02-13 08:00:00,
2013-02-13 03:10:00,37.9,25.6,29.83,NE,45,3.0,6.0,61,0.00,OVC,OVC,0.00,WeatherDisplay:10.31,2013-02-13 08:10:00,
2013-02-13 03:20:00,37.9,25.6,29.83,NE,43,3.0,6.0,61,0.00,OVC,OVC,0.00,WeatherDisplay:10.31,2013-02-13 08:20:00,
2013-02-13 03:30:00,37.8,25.5,29.83,NE,45,3.0,7.0,61,0.00,OVC,OVC,0.00,WeatherDisplay:10.31,2013-02-13 08:30:00,
2013-02-13 03:40:00,37.6,25.4,29.83,NE,42,3.0,6.0,61,0.00,OVC,OVC,0.00,WeatherDisplay:10.31,2013-02-13 08:40:00,
2013-02-13 03:50:00,37.6,25.4,29.82,NE,38,2.0,7.0,61,0.00,OVC,OVC,0.00,WeatherDisplay:10.31,2013-02-13 08:50:00,
2013-02-13 04:00:00,37.5,25.3,29.82,NE,45,2.0,3.0,61,0.00,OVC,OVC,0.00,WeatherDisplay:10.31,2013-02-13 09:00:00,
2013-02-13 04:05:00,37.3,25.5,29.82,NE,38,2.0,7.0,62,0.00,OVC,OVC,0.00,WeatherDisplay:10.31,2013-02-13 09:05:00,
2013-02-13 04:10:00,37.3,25.5,29.82,NE,39,3.0,6.0,62,0.00,OVC,OVC,0.00,WeatherDisplay:10.31,2013-02-13 09:10:00,
2013-02-13 04:20:00,37.0,25.2,29.83,NE,45,2.0,6.0,62,0.00,OVC,OVC,0.00,WeatherDisplay:10.31,2013-02-13 09:20:00,
2013-02-13 04:30:00,36.9,25.1,29.83,NE,45,2.0,3.0,62,0.00,OVC,OVC,0.00,WeatherDisplay:10.31,2013-02-13 09:30:00,
2013-02-13 04:40:00,36.6,25.2,29.83,NE,45,5.0,6.0,63,0.00,OVC,OVC,0.00,WeatherDisplay:10.31,2013-02-13 09:40:00,
2013-02-13 04:50:00,36.5,25.1,29.83,NE,45,2.0,3.0,63,0.00,OVC,OVC,0.00,WeatherDisplay:10.31,2013-02-13 09:50:00,
2013-02-13 05:00:00,36.5,25.5,29.84,NE,45,2.0,3.0,64,0.00,OVC,OVC,0.00,WeatherDisplay:10.31,2013-02-13 10:00:00,
2013-02-13 05:10:00,36.3,25.3,29.83,NE,45,3.0,3.0,64,0.00,OVC,OVC,0.00,WeatherDisplay:10.31,2013-02-13 10:10:00,
2013-02-13 05:20:00,36.3,25.3,29.83,NE,45,2.0,3.0,64,0.00,OVC,OVC,0.00,WeatherDisplay:10.31,2013-02-13 10:20:00,
2013-02-13 05:30:00,36.2,25.6,29.83,NE,45,2.0,5.0,65,0.00,OVC,OVC,0.00,WeatherDisplay:10.31,2013-02-13 10:30:00,
2013-02-13 05:40:00,36.0,25.4,29.83,NNE,30,3.0,5.0,65,0.00,OVC,OVC,0.00,WeatherDisplay:10.31,2013-02-13 10:40:00,
2013-02-13 05:50:00,36.0,25.4,29.83,NE,35,2.0,5.0,65,0.00,OVC,OVC,0.00,WeatherDisplay:10.31,2013-02-13 10:50:00,
2013-02-13 05:55:00,36.0,25.4,29.83,NNE,28,3.0,6.0,65,0.00,OVC,OVC,0.00,WeatherDisplay:10.31,2013-02-13 10:55:00,
2013-02-13 06:00:00,36.0,25.4,29.82,NNE,29,2.0,6.0,65,0.00,OVC,OVC,0.00,WeatherDisplay:10.31,2013-02-13 11:00:00,
2013-02-13 06:05:00,36.1,25.8,29.82,NNE,23,3.0,12.0,66,0.00,OVC,OVC,0.00,WeatherDisplay:10.31,2013-02-13 11:05:00,
2013-02-13 06:10:00,36.2,25.6,29.82,NNE,28,3.0,7.0,65,0.00,OVC,OVC,0.00,WeatherDisplay:10.31,2013-02-13 11:10:00,
2013-02-13 06:20:00,36.3,26.0,29.82,NE,43,3.0,7.0,66,0.00,OVC,OVC,0.00,WeatherDisplay:10.31,2013-02-13 11:20:00,
2013-02-13 06:30:00,36.3,25.7,29.81,NE,42,3.0,8.0,65,0.00,OVC,OVC,0.00,WeatherDisplay:10.31,2013-02-13 11:30:00,
2013-02-13 06:40:00,36.3,25.7,29.81,NE,43,3.0,12.0,65,0.00,OVC,OVC,0.00,WeatherDisplay:10.31,2013-02-13 11:40:00,
2013-02-13 06:45:00,36.3,25.7,29.81,NE,49,6.0,10.0,65,0.00,OVC,OVC,0.00,WeatherDisplay:10.31,2013-02-13 11:45:00,
2013-02-13 06:50:00,36.3,25.7,29.81,NE,51,3.0,7.0,65,0.00,OVC,OVC,0.00,WeatherDisplay:10.31,2013-02-13 11:50:00,
2013-02-13 07:00:00,36.3,25.7,29.81,NE,45,5.0,7.0,65,0.00,OVC,OVC,0.00,WeatherDisplay:10.31,2013-02-13 12:00:00,
2013-02-13 07:05:00,36.3,25.7,29.81,NE,45,3.0,5.0,65,0.00,OVC,OVC,0.00,WeatherDisplay:10.31,2013-02-13 12:05:00,
2013-02-13 07:10:00,36.3,25.7,29.80,NE,47,5.0,6.0,65,0.00,OVC,OVC,0.00,WeatherDisplay:10.31,2013-02-13 12:10:00,
2013-02-13 07:20:00,36.0,25.7,29.80,NE,43,3.0,7.0,66,0.00,OVC,OVC,0.00,WeatherDisplay:10.31,2013-02-13 12:20:00,
2013-02-13 07:30:00,35.9,25.6,29.80,NE,46,5.0,7.0,66,0.00,BKN,BKN,0.00,WeatherDisplay:10.31,2013-02-13 12:30:00,
2013-02-13 07:40:00,35.9,25.6,29.81,NE,50,3.0,7.0,66,0.00,BKN,BKN,0.00,WeatherDisplay:10.31,2013-02-13 12:40:00,
2013-02-13 07:50:00,36.0,25.7,29.83,ENE,59,3.0,7.0,66,0.00,SCT,SCT,0.00,WeatherDisplay:10.31,2013-02-13 12:50:00,
2013-02-13 08:00:00,36.3,25.7,29.83,ENE,68,2.0,3.0,65,0.00,SCT,SCT,0.00,WeatherDisplay:10.31,2013-02-13 13:00:00,
2013-02-13 08:05:00,36.5,25.8,29.83,ENE,60,3.0,6.0,65,0.00,SCT,SCT,0.00,WeatherDisplay:10.31,2013-02-13 13:05:00,
2013-02-13 08:10:00,36.7,26.0,29.82,NE,48,2.0,6.0,65,0.00,SCT,SCT,0.00,WeatherDisplay:10.31,2013-02-13 13:10:00,
2013-02-13 08:20:00,37.0,25.6,29.82,NE,41,2.0,3.0,63,0.00,CLR,CLR,0.00,WeatherDisplay:10.31,2013-02-13 13:20:00,
2013-02-13 08:30:00,37.6,25.4,29.82,NE,50,6.0,9.0,61,0.00,BKN,BKN,0.00,WeatherDisplay:10.31,2013-02-13 13:30:00,
2013-02-13 08:40:00,37.9,25.6,29.83,NE,51,3.0,8.0,61,0.00,BKN,BKN,0.00,WeatherDisplay:10.31,2013-02-13 13:40:00,
2013-02-13 08:50:00,38.0,25.3,29.83,NE,56,3.0,6.0,60,0.00,BKN,BKN,0.00,WeatherDisplay:10.31,2013-02-13 13:50:00,
2013-02-13 09:00:00,38.3,25.6,29.82,ENE,69,2.0,3.0,60,0.00,SCT,SCT,0.00,WeatherDisplay:10.31,2013-02-13 14:00:00,
2013-02-13 09:05:00,38.5,25.4,29.81,ENE,68,3.0,7.0,59,0.00,SCT,SCT,0.00,WeatherDisplay:10.31,2013-02-13 14:05:00,
2013-02-13 09:10:00,38.8,25.3,29.81,ENE,63,2.0,7.0,58,0.00,SCT,SCT,0.00,WeatherDisplay:10.31,2013-02-13 14:10:00,
2013-02-13 09:20:00,39.3,25.3,29.80,NE,51,7.0,12.0,57,0.00,SCT,SCT,0.00,WeatherDisplay:10.31,2013-02-13 14:20:00,
2013-02-13 09:30:00,39.5,25.1,29.80,ENE,62,6.0,12.0,56,0.00,BKN,BKN,0.00,WeatherDisplay:10.31,2013-02-13 14:30:00,
2013-02-13 09:40:00,39.8,25.4,29.80,NE,56,3.0,6.0,56,0.00,BKN,BKN,0.00,WeatherDisplay:10.31,2013-02-13 14:40:00,
2013-02-13 09:50:00,39.9,25.5,29.80,ENE,63,3.0,6.0,56,0.00,OVC,OVC,0.00,WeatherDisplay:10.31,2013-02-13 14:50:00,
2013-02-13 10:00:00,39.7,25.3,29.80,East,90,2.0,5.0,56,0.00,OVC,OVC,0.00,WeatherDisplay:10.31,2013-02-13 15:00:00,
2013-02-13 10:05:00,39.5,25.1,29.81,East,81,2.0,6.0,56,0.00,OVC,OVC,0.00,WeatherDisplay:10.31,2013-02-13 15:05:00,
2013-02-13 10:10:00,39.5,25.5,29.80,ENE,78,2.0,3.0,57,0.00,OVC,OVC,0.00,WeatherDisplay:10.31,2013-02-13 15:10:00,
2013-02-13 10:20:00,39.8,26.2,29.78,NE,53,2.0,6.0,58,0.00,OVC,OVC,0.00,WeatherDisplay:10.31,2013-02-13 15:20:00,
2013-02-13 10:30:00,40.1,26.1,29.78,ENE,59,2.0,5.0,57,0.00,OVC,OVC,0.00,WeatherDisplay:10.31,2013-02-13 15:30:00,
2013-02-13 10:40:00,40.2,26.2,29.78,ENE,68,2.0,3.0,57,0.00,OVC,OVC,0.00,WeatherDisplay:10.31,2013-02-13 15:40:00,
2013-02-13 10:50:00,40.5,26.0,29.78,ENE,70,2.0,5.0,56,0.00,OVC,OVC,0.00,WeatherDisplay:10.31,2013-02-13 15:50:00,
2013-02-13 11:00:00,40.6,26.1,29.77,East,83,3.0,7.0,56,0.00,SCT,SCT,0.00,WeatherDisplay:10.31,2013-02-13 16:00:00,
2013-02-13 11:05:00,40.9,26.0,29.77,ENE,74,1.0,6.0,55,0.00,BKN,BKN,0.00,WeatherDisplay:10.31,2013-02-13 16:05:00,
2013-02-13 11:10:00,41.3,26.3,29.77,ENE,64,1.0,3.0,55,0.00,BKN,BKN,0.00,WeatherDisplay:10.31,2013-02-13 16:10:00,
2013-02-13 11:20:00,42.1,26.6,29.77,ENE,75,2.0,7.0,54,0.00,BKN,BKN,0.00,WeatherDisplay:10.31,2013-02-13 16:20:00,
2013-02-13 11:30:00,42.9,26.9,29.76,East,87,3.0,6.0,53,0.00,CLR,CLR,0.00,WeatherDisplay:10.31,2013-02-13 16:30:00,
2013-02-13 11:40:00,44.2,27.2,29.75,East,82,5.0,9.0,51,0.00,CLR,CLR,0.00,WeatherDisplay:10.31,2013-02-13 16:40:00,
2013-02-13 11:50:00,44.6,27.0,29.75,East,99,2.0,6.0,50,0.00,CLR,CLR,0.00,WeatherDisplay:10.31,2013-02-13 16:50:00,
2013-02-13 12:00:00,46.2,28.1,29.72,East,84,5.0,6.0,49,0.00,SCT,SCT,0.00,WeatherDisplay:10.31,2013-02-13 17:00:00,
2013-02-13 12:05:00,46.8,28.6,29.72,ENE,78,6.0,12.0,49,0.00,SCT,SCT,0.00,WeatherDisplay:10.31,2013-02-13 17:05:00,
2013-02-13 12:10:00,47.3,28.1,29.71,ENE,65,5.0,7.0,47,0.00,SCT,SCT,0.00,WeatherDisplay:10.31,2013-02-13 17:10:00,
2013-02-13 12:20:00,47.3,28.1,29.71,ENE,69,3.0,5.0,47,0.00,SCT,SCT,0.00,WeatherDisplay:10.31,2013-02-13 17:20:00,
2013-02-13 12:30:00,46.8,28.1,29.71,East,86,3.0,6.0,48,0.00,BKN,BKN,0.00,WeatherDisplay:10.31,2013-02-13 17:30:00,
2013-02-13 12:40:00,46.5,28.3,29.70,ESE,115,3.0,9.0,49,0.00,BKN,BKN,0.00,WeatherDisplay:10.31,2013-02-13 17:40:00,
2013-02-13 12:50:00,46.2,28.6,29.69,East,90,1.0,5.0,50,0.00,BKN,BKN,0.00,WeatherDisplay:10.31,2013-02-13 17:50:00,
2013-02-13 13:00:00,46.4,28.3,29.68,ESE,121,2.0,5.0,49,0.00,OVC,OVC,0.00,WeatherDisplay:10.31,2013-02-13 18:00:00,
2013-02-13 13:05:00,46.2,28.1,29.68,ESE,123,2.0,9.0,49,0.00,OVC,OVC,0.00,WeatherDisplay:10.31,2013-02-13 18:05:00,
2013-02-13 13:10:00,46.2,29.1,29.68,SE,130,3.0,5.0,51,0.00,BKN,BKN,0.00,WeatherDisplay:10.31,2013-02-13 18:10:00,
2013-02-13 13:20:00,46.1,29.0,29.67,ESE,104,2.0,7.0,51,0.00,BKN,BKN,0.00,WeatherDisplay:10.31,2013-02-13 18:20:00,
2013-02-13 13:30:00,46.4,28.8,29.66,East,90,1.0,5.0,50,0.00,BKN,BKN,0.00,WeatherDisplay:10.31,2013-02-13 18:30:00,
2013-02-13 13:40:00,46.5,28.8,29.66,ESE,113,0.0,2.0,50,0.00,OVC,OVC,0.00,WeatherDisplay:10.31,2013-02-13 18:40:00,
2013-02-13 13:50:00,46.7,29.0,29.67,ESE,113,1.0,3.0,50,0.00,OVC,OVC,0.00,WeatherDisplay:10.31,2013-02-13 18:50:00,
2013-02-13 14:00:00,46.8,29.6,29.65,East,99,1.0,3.0,51,0.00,OVC,OVC,0.00,WeatherDisplay:10.31,2013-02-13 19:00:00,
2013-02-13 14:05:00,46.8,29.6,29.65,East,90,0.0,3.0,51,0.00,OVC,OVC,0.00,WeatherDisplay:10.31,2013-02-13 19:05:00,
2013-02-13 14:10:00,47.0,30.7,29.65,East,90,1.0,2.0,53,0.00,OVC,OVC,0.00,WeatherDisplay:10.31,2013-02-13 19:10:00,
2013-02-13 14:20:00,47.3,30.5,29.64,East,86,1.0,3.0,52,0.00,OVC,OVC,0.00,WeatherDisplay:10.31,2013-02-13 19:20:00,
2013-02-13 14:30:00,47.1,30.8,29.64,ENE,68,0.0,3.0,53,0.00,OVC,OVC,0.00,WeatherDisplay:10.31,2013-02-13 19:30:00,
2013-02-13 14:40:00,46.7,31.8,29.63,East,100,2.0,5.0,56,0.00,OVC,OVC,0.00,WeatherDisplay:10.31,2013-02-13 19:40:00,
2013-02-13 14:50:00,46.1,33.0,29.61,ENE,72,0.0,2.0,60,0.00,OVC,OVC,0.00,WeatherDisplay:10.31,2013-02-13 19:50:00,
2013-02-13 15:00:00,45.8,33.5,29.61,East,83,2.0,3.0,62,0.00,OVC,OVC,0.00,WeatherDisplay:10.31,2013-02-13 20:00:00,
2013-02-13 15:10:00,45.7,34.6,29.60,NE,36,2.0,6.0,65,0.00,OVC,OVC,0.00,WeatherDisplay:10.31,2013-02-13 20:10:00,
2013-02-13 15:20:00,45.4,34.7,29.60,NE,47,2.0,5.0,66,0.00,OVC,OVC,0.00,WeatherDisplay:10.31,2013-02-13 20:20:00,
2013-02-13 15:30:00,44.9,34.6,29.60,ENE,64,1.0,3.0,67,0.00,OVC,OVC,0.00,WeatherDisplay:10.31,2013-02-13 20:30:00,
2013-02-13 15:40:00,44.3,34.0,29.60,ENE,60,2.0,7.0,67,0.00,OVC,OVC,0.00,WeatherDisplay:10.31,2013-02-13 20:40:00,
2013-02-13 15:50:00,43.8,33.9,29.60,ENE,68,2.0,3.0,68,0.00,OVC,OVC,0.00,WeatherDisplay:10.31,2013-02-13 20:50:00,
2013-02-13 16:00:00,43.3,33.4,29.60,ENE,70,2.0,3.0,68,0.00,OVC,OVC,0.00,WeatherDisplay:10.31,2013-02-13 21:00:00,
2013-02-13 16:05:00,43.2,33.7,29.60,ENE,72,1.0,3.0,69,0.00,OVC,OVC,0.00,WeatherDisplay:10.31,2013-02-13 21:05:00,
2013-02-13 16:10:00,43.1,33.6,29.60,ENE,68,2.0,3.0,69,0.00,OVC,OVC,0.00,WeatherDisplay:10.31,2013-02-13 21:10:00,
2013-02-13 16:20:00,42.9,34.5,29.60,ENE,68,1.0,3.0,72,0.01,RA,RA,0.01,WeatherDisplay:10.31,2013-02-13 21:20:00,
2013-02-13 16:30:00,42.9,35.2,29.60,NE,54,0.0,3.0,74,0.01,RA,RA,0.02,WeatherDisplay:10.31,2013-02-13 21:30:00,
2013-02-13 16:40:00,42.6,35.9,29.60,NE,45,1.0,3.0,77,0.01,RA,RA,0.03,WeatherDisplay:10.31,2013-02-13 21:40:00,
2013-02-13 16:50:00,42.2,36.2,29.60,NE,51,0.0,3.0,79,0.00,OVC,OVC,0.03,WeatherDisplay:10.31,2013-02-13 21:50:00,
2013-02-13 17:00:00,41.8,36.1,29.61,ENE,68,1.0,2.0,80,0.00,OVC,OVC,0.03,WeatherDisplay:10.31,2013-02-13 22:00:00,
2013-02-13 17:05:00,41.6,36.2,29.61,ENE,68,0.0,2.0,81,0.00,OVC,OVC,0.03,WeatherDisplay:10.31,2013-02-13 22:05:00,
2013-02-13 17:10:00,41.5,36.1,29.61,ENE,68,0.0,2.0,81,0.01,RA,RA,0.04,WeatherDisplay:10.31,2013-02-13 22:10:00,
2013-02-13 17:20:00,41.3,36.5,29.62,ENE,68,1.0,2.0,83,0.01,RA,RA,0.05,WeatherDisplay:10.31,2013-02-13 22:20:00,
2013-02-13 17:30:00,41.1,36.3,29.61,ENE,68,0.0,2.0,83,0.01,RA,RA,0.06,WeatherDisplay:10.31,2013-02-13 22:30:00,
2013-02-13 17:40:00,40.8,36.3,29.61,ENE,68,1.0,2.0,84,0.01,RA,RA,0.07,WeatherDisplay:10.31,2013-02-13 22:40:00,
2013-02-13 17:50:00,40.8,36.9,29.61,ENE,68,1.0,3.0,86,0.01,RA,RA,0.09,WeatherDisplay:10.31,2013-02-13 22:50:00,
2013-02-13 18:00:00,40.8,36.9,29.61,NNE,27,7.0,12.0,86,0.01,RA,RA,0.10,WeatherDisplay:10.31,2013-02-13 23:00:00,
2013-02-13 18:05:00,40.6,37.0,29.61,NNE,18,3.0,10.0,87,0.00,RA,RA,0.10,WeatherDisplay:10.31,2013-02-13 23:05:00,
2013-02-13 18:10:00,40.5,36.9,29.61,NNE,17,5.0,7.0,87,0.01,RA,RA,0.11,WeatherDisplay:10.31,2013-02-13 23:10:00,
2013-02-13 18:20:00,40.2,36.6,29.61,NNE,15,2.0,9.0,87,0.00,OVC,OVC,0.11,WeatherDisplay:10.31,2013-02-13 23:20:00,
2013-02-13 18:30:00,39.9,36.3,29.62,North,360,2.0,7.0,87,0.00,OVC,OVC,0.11,WeatherDisplay:10.31,2013-02-13 23:30:00,
2013-02-13 18:40:00,39.8,36.2,29.62,North,3,6.0,10.0,87,0.00,RA,RA,0.12,WeatherDisplay:10.31,2013-02-13 23:40:00,
2013-02-13 18:50:00,39.3,35.8,29.62,North,10,2.0,10.0,87,0.00,OVC,OVC,0.12,WeatherDisplay:10.31,2013-02-13 23:50:00,
2013-02-13 19:00:00,39.2,35.7,29.62,North,10,3.0,10.0,87,0.00,RA,RA,0.13,WeatherDisplay:10.31,2013-02-14 00:00:00,
2013-02-13 19:05:00,38.9,35.4,29.62,North,8,3.0,10.0,87,0.00,OVC,OVC,0.13,WeatherDisplay:10.31,2013-02-14 00:05:00,
2013-02-13 19:10:00,38.8,35.3,29.62,North,11,5.0,10.0,87,0.00,OVC,OVC,0.13,WeatherDisplay:10.31,2013-02-14 00:10:00,
2013-02-13 19:15:00,38.6,35.1,29.63,NNE,14,2.0,10.0,87,0.01,RA,RA,0.14,WeatherDisplay:10.31,2013-02-14 00:15:00,
2013-02-13 19:20:00,38.6,35.1,29.63,North,9,3.0,9.0,87,0.00,RA,RA,0.14,WeatherDisplay:10.31,2013-02-14 00:20:00,
2013-02-13 19:30:00,38.5,35.0,29.63,NNW,348,6.0,12.0,87,0.00,OVC,OVC,0.14,WeatherDisplay:10.31,2013-02-14 00:30:00,
2013-02-13 19:40:00,38.2,34.7,29.64,North,350,7.0,10.0,87,0.00,RA,RA,0.15,WeatherDisplay:10.31,2013-02-14 00:40:00,
2013-02-13 19:50:00,37.9,34.4,29.65,NNW,342,5.0,6.0,87,0.01,RA,RA,0.16,WeatherDisplay:10.31,2013-02-14 00:50:00,
2013-02-13 20:00:00,37.8,34.3,29.65,NNW,348,2.0,9.0,87,0.00,OVC,OVC,0.16,WeatherDisplay:10.31,2013-02-14 01:00:00,
2013-02-13 20:05:00,37.8,34.3,29.65,NNW,346,5.0,12.0,87,0.00,OVC,OVC,0.16,WeatherDisplay:10.31,2013-02-14 01:05:00,
2013-02-13 20:10:00,37.6,34.1,29.64,NNW,340,7.0,12.0,87,0.01,RA,RA,0.17,WeatherDisplay:10.31,2013-02-14 01:10:00,
2013-02-13 20:20:00,37.3,33.8,29.65,NNW,343,6.0,9.0,87,0.01,RA,RA,0.18,WeatherDisplay:10.31,2013-02-14 01:20:00,
2013-02-13 20:30:00,37.0,33.5,29.65,NNW,337,2.0,10.0,87,0.00,OVC,OVC,0.18,WeatherDisplay:10.31,2013-02-14 01:30:00,
2013-02-13 20:40:00,36.8,33.3,29.65,NNW,337,3.0,8.0,87,0.00,OVC,OVC,0.18,WeatherDisplay:10.31,2013-02-14 01:40:00,
2013-02-13 20:50:00,36.6,33.4,29.65,NNW,340,5.0,7.0,88,0.00,RA,RA,0.19,WeatherDisplay:10.31,2013-02-14 01:50:00,
2013-02-13 21:00:00,36.5,33.6,29.66,NNW,337,3.0,6.0,89,0.00,OVC,OVC,0.19,WeatherDisplay:10.31,2013-02-14 02:00:00,
2013-02-13 21:05:00,36.3,33.1,29.66,NW,325,5.0,7.0,88,0.00,OVC,OVC,0.19,WeatherDisplay:10.31,2013-02-14 02:05:00,
2013-02-13 21:10:00,36.2,33.0,29.66,NW,320,2.0,10.0,88,0.01,RA,RA,0.20,WeatherDisplay:10.31,2013-02-14 02:10:00,
2013-02-13 21:20:00,35.9,32.7,29.66,NW,321,2.0,9.0,88,0.00,OVC,OVC,0.20,WeatherDisplay:10.31,2013-02-14 02:20:00,
2013-02-13 21:30:00,35.8,32.6,29.67,NW,325,0.0,8.0,88,0.00,OVC,OVC,0.20,WeatherDisplay:10.31,2013-02-14 02:30:00,
2013-02-13 21:40:00,35.6,32.4,29.67,NW,310,0.0,1.0,88,0.00,OVC,OVC,0.20,WeatherDisplay:10.31,2013-02-14 02:40:00,
2013-02-13 21:50:00,35.3,32.1,29.68,WNW,299,0.0,1.0,88,0.00,RA,RA,0.21,WeatherDisplay:10.31,2013-02-14 02:50:00,
2013-02-13 22:00:00,35.2,32.3,29.69,NW,304,0.0,1.0,89,0.00,OVC,OVC,0.21,WeatherDisplay:10.31,2013-02-14 03:00:00,
2013-02-13 22:05:00,35.2,32.3,29.69,NW,306,0.0,1.0,89,0.00,OVC,OVC,0.21,WeatherDisplay:10.31,2013-02-14 03:05:00,
2013-02-13 22:10:00,35.0,32.1,29.69,NW,306,0.0,1.0,89,0.00,OVC,OVC,0.21,WeatherDisplay:10.31,2013-02-14 03:10:00,
2013-02-13 22:20:00,35.0,32.1,29.68,NW,304,0.0,1.0,89,0.00,OVC,OVC,0.21,WeatherDisplay:10.31,2013-02-14 03:20:00,
2013-02-13 22:30:00,35.2,32.3,29.68,NNW,331,0.0,1.0,89,0.00,OVC,OVC,0.21,WeatherDisplay:10.31,2013-02-14 03:30:00,
2013-02-13 22:40:00,35.2,32.3,29.69,NNW,333,0.0,1.0,89,0.00,OVC,OVC,0.21,WeatherDisplay:10.31,2013-02-14 03:40:00,
2013-02-13 22:50:00,35.2,32.6,29.69,NW,317,0.0,1.0,90,0.00,OVC,OVC,0.21,WeatherDisplay:10.31,2013-02-14 03:50:00,
2013-02-13 23:00:00,35.2,32.6,29.70,NW,320,0.0,1.0,90,0.00,OVC,OVC,0.21,WeatherDisplay:10.31,2013-02-14 04:00:00,
2013-02-13 23:05:00,35.2,32.6,29.70,NW,326,0.0,1.0,90,0.00,OVC,OVC,0.21,WeatherDisplay:10.31,2013-02-14 04:05:00,
2013-02-13 23:10:00,35.2,32.6,29.70,NNW,331,1.0,1.0,90,0.00,OVC,OVC,0.21,WeatherDisplay:10.31,2013-02-14 04:10:00,
2013-02-13 23:20:00,35.2,32.6,29.69,NNW,333,0.0,1.0,90,0.00,OVC,OVC,0.21,WeatherDisplay:10.31,2013-02-14 04:20:00,
2013-02-13 23:30:00,35.3,32.7,29.69,NNW,337,1.0,2.0,90,0.00,OVC,OVC,0.21,WeatherDisplay:10.31,2013-02-14 04:30:00,
2013-02-13 23:40:00,35.3,32.7,29.70,NW,308,1.0,1.0,90,0.00,OVC,OVC,0.21,WeatherDisplay:10.31,2013-02-14 04:40:00,
2013-02-13 23:50:00,35.2,32.6,29.71,NW,317,0.0,1.0,90,0.00,OVC,OVC,0.21,WeatherDisplay:10.31,2013-02-14 04:50:00,